ONEWEB-0063 (45448 NORAD) Tracking and Keplerian Element Data

This shows tracking and keplerian element data for the satellite.

Feedback or suggestion? Click here.




ElementValue
Catalog45448
NameONEWEB-0063
Epoch Orbit86
Epoch Day87.57267067
Epoch Year2020
RAAN136.8431
Inclination87.4015
Eccentricity0.0025399
Argument of Perigee284.5751
Mean Anonmoly75.2685
Mean Motion15.35336548
Decay Rate1.972E-05
L11 45448U 20020AA 20087.57267067 .00001972 00000-0 55704-4 0 9990
L22 45448 87.4015 136.8431 0025399 284.5751 75.2685 15.35336548 868

Live tracking and technical data element details for ONEWEB-0063 (NORAD 45448). ONEWEB-0063 can be tracked NOW for your location showing map with azimuth and elevation plus other details from your city location.

Track the satellite on the map from your city or location and see movement details for azimuth, elevation, latitude, longitude, range, height, and movement on the map or in text.







IsCatalogInMostPopularTable: catalog: 45448, numindb: -1

Insert: records affected: 1


GetName: 45448 ONEWEB-0063

Hit Count: inserted at: Tue, 31 Mar 2020 13:42:48 GMT